Location: Dampvalley
(47.9094°N, 6.1967°E)
Time: 22:12:30
(UTC+00:00)

SO-50 - Pass Details

Date: 03 December 2021
Orbit: 595 x 689 km, 64.6° (Epoch: 24 January)

Event Time Altitude Azimuth Distance (km) Brightness Sun altitude
Rises 17:30:55 0° 315° (NW) 3,025 ? -17.2°
Reaches altitude 10° 17:33:24 10° 305° (NW) 2,120 ? -17.6°
Maximum altitude 17:37:41 32° 243° (WSW) 1,159 ? -18.3°
Drops below altitude 10° 17:42:00 10° 180° (S) 2,132 ? -19.0°
Sets 17:44:31 0° 171° (S) 3,046 ? -19.4°
